Starlink 30227

operational
NORAD ID: 57505 Int'l Des: 2023-113 Owner: SPXS Country: US Constellation: starlink
LEOCIRCULAR

Über Starlink 30227

Beschreibung wird geladen...

Live-Position

3D-Globus wird geladen...

Nächste Überflüge

Höhenverlauf

Altitude vs Time

uPlot chart will show altitude changes over time

Zweizeiliger Elementsatz

1 57505U 23113L 25308.48685943 .00000138 00000-0 25322-4 0 9997
2 57505 43.0052 324.8749 0001201 273.3108 86.7597 15.02537469124970
Epoch: 4. Nov. 2025 • Age: 7 hours

Aktueller Status

Höhe 560.9 km
Geschwindigkeit 7.58 km/s
Subsatellitenpunkt -11.42°S, 172.67°W
Startdatum 7. Aug. 2023
Alter 2.2 years
Typ internet

Technische Details

Klassifizierung Payload
Masse 730.00 kg
Trockenmasse 700.00 kg
Gesamtmasse 730.00 kg
Länge 0.30 m
Durchmesser 4.10 m
Spannweite 29.00 m
Form Box + pan
Hersteller SPXS
Bus-Typ Starlink V2M
Phasenstatus In Orbit
Besitzer/Staat SPXS/US

Große Konstellationen

Loading constellations...